Location: Newark
(44.6768°N, 22.5302°E)
Time: 07:50:03
(UTC+00:00)

UKube-1 - Pass Details

Date: 11 July 2022
Orbit: 608 x 615 km, 98.4° (Epoch: 15 August)

Event Time Altitude Azimuth Distance (km) Brightness Sun altitude
Rises 19:47:26 0° 25° (NNE) 2,888 ? -13.1°
Reaches altitude 10° 19:49:55 10° 38° (NE) 1,977 ? -13.4°
Maximum altitude 19:53:33 26° 96° (E) 1,198 ? -13.8°
Enters shadow 19:55:01 22° 128° (SE) 1,352 ? -13.9°
